When you browse on this site, cookies collect data to enhance your experience and personalize the content and advertising you see.
Visit our Privacy Policy to learn more. By continuing to use the site, you agree to this use of cookies and data.
  • In United Kingdom
  • List of Countries
  • For 7 days
  • Water Temperature
  • Satellite Maps
  • Weather Map
  • Weather Widgets
  • user-avatar
    Login

    Hourly Weather Aberlour

    Today, 21 March, Thursday

    Time Temperature Precipitation Wind Pressure Humidity
    00:00 +10°C° 0 mm 7 mps 748 mmHg 76%
    01:00 +10°C° 0 mm 7 mps 748 mmHg 77%
    02:00 +10°C° 0 mm 7 mps 748 mmHg 77%
    03:00 +11°C° 0 mm 6 mps 749 mmHg 78%
    04:00 +10°C° 0.5 mm 5 mps 749 mmHg 81%
    05:00 +10°C° 0.5 mm 5 mps 750 mmHg 85%
    06:00 +10°C° 0.5 mm 4 mps 750 mmHg 88%
    07:00 +10°C° 0.7 mm 3 mps 751 mmHg 90%
    08:00 +9°C° 0.7 mm 2 mps 752 mmHg 91%
    09:00 +9°C° 0.7 mm 2 mps 753 mmHg 93%
    10:00 +10°C° 0 mm 2 mps 753 mmHg 86%
    11:00 +12°C° 0 mm 2 mps 753 mmHg 78%
    12:00 +13°C° 0 mm 1 mps 754 mmHg 71%
    13:00 +13°C° 0 mm 2 mps 754 mmHg 69%
    14:00 +14°C° 0 mm 2 mps 754 mmHg 68%
    15:00 +14°C° 0 mm 2 mps 754 mmHg 66%
    16:00 +13°C° 0.1 mm 2 mps 753 mmHg 72%
    17:00 +11°C° 0.1 mm 3 mps 753 mmHg 78%
    18:00 +10°C° 0.1 mm 3 mps 752 mmHg 85%
    19:00 +10°C° 0 mm 4 mps 752 mmHg 85%
    20:00 +9°C° 0 mm 5 mps 751 mmHg 85%
    21:00 +9°C° 0 mm 5 mps 751 mmHg 85%
    22:00 +10°C° 0 mm 5 mps 750 mmHg 83%
    23:00 +10°C° 0 mm 6 mps 749 mmHg 82%

    Tomorrow, 22 March, Friday

    Time Temperature Precipitation Wind Pressure Humidity
    00:00 +10°C° 0 mm 6 mps 748 mmHg 81%
    01:00 +10°C° 0 mm 6 mps 748 mmHg 80%
    02:00 +10°C° 0 mm 6 mps 747 mmHg 78%
    03:00 +10°C° 0 mm 7 mps 746 mmHg 77%
    04:00 +10°C° 0 mm 7 mps 745 mmHg 76%
    05:00 +10°C° 0 mm 7 mps 744 mmHg 74%
    06:00 +10°C° 0 mm 7 mps 743 mmHg 72%
    07:00 +10°C° 0 mm 7 mps 743 mmHg 72%
    08:00 +10°C° 0 mm 8 mps 742 mmHg 71%
    09:00 +10°C° 0 mm 8 mps 742 mmHg 71%
    10:00 +10°C° 0.2 mm 8 mps 742 mmHg 72%
    11:00 +9°C° 0.2 mm 8 mps 742 mmHg 73%
    12:00 +9°C° 0.2 mm 7 mps 742 mmHg 75%
    13:00 +9°C° 0 mm 8 mps 743 mmHg 69%
    14:00 +8°C° 0 mm 9 mps 743 mmHg 62%
    15:00 +7°C° 0 mm 9 mps 743 mmHg 56%
    16:00 +6°C° 0 mm 9 mps 744 mmHg 57%
    17:00 +5°C° 0 mm 9 mps 745 mmHg 58%
    18:00 +3°C° 0 mm 9 mps 745 mmHg 59%
    19:00 +2°C° 0 mm 9 mps 746 mmHg 59%
    20:00 +1°C° 0 mm 9 mps 747 mmHg 60%
    21:00 0°C° 0 mm 9 mps 748 mmHg 60%
    22:00 0°C° 0 mm 8 mps 749 mmHg 61%
    23:00 0°C° 0 mm 8 mps 749 mmHg 62%

    Day after tomorrow, 23 March, Saturday

    Time Temperature Precipitation Wind Pressure Humidity
    00:00 0°C° 0 mm 7 mps 750 mmHg 63%
    01:00 -1°C° 0 mm 7 mps 750 mmHg 64%
    02:00 -1°C° 0 mm 7 mps 750 mmHg 65%
    03:00 -1°C° 0 mm 6 mps 751 mmHg 66%
    04:00 -1°C° 0 mm 6 mps 751 mmHg 67%
    05:00 0°C° 0 mm 5 mps 752 mmHg 68%
    06:00 0°C° 0 mm 5 mps 752 mmHg 69%
    07:00 +1°C° 0 mm 5 mps 753 mmHg 64%
    08:00 +2°C° 0 mm 6 mps 753 mmHg 60%
    09:00 +3°C° 0 mm 6 mps 754 mmHg 55%
    10:00 +4°C° 0 mm 6 mps 754 mmHg 52%
    11:00 +5°C° 0 mm 6 mps 755 mmHg 49%
    12:00 +5°C° 0 mm 6 mps 755 mmHg 45%
    13:00 +6°C° 0 mm 5 mps 755 mmHg 46%
    14:00 +7°C° 0 mm 5 mps 755 mmHg 47%
    15:00 +7°C° 0 mm 5 mps 755 mmHg 47%
    16:00 +6°C° 0 mm 5 mps 755 mmHg 52%
    17:00 +5°C° 0 mm 4 mps 755 mmHg 57%
    18:00 +4°C° 0 mm 4 mps 754 mmHg 62%
    19:00 +3°C° 0 mm 4 mps 755 mmHg 66%
    20:00 +3°C° 0 mm 4 mps 755 mmHg 70%
    21:00 +1°C° 0 mm 4 mps 755 mmHg 74%
    22:00 +1°C° 0 mm 5 mps 754 mmHg 75%
    23:00 +1°C° 0 mm 5 mps 754 mmHg 76%

    24 March, Sunday

    Time Temperature Precipitation Wind Pressure Humidity
    00:00 +1°C° 0 mm 5 mps 754 mmHg 77%
    01:00 0°C° 0 mm 5 mps 753 mmHg 77%
    02:00 0°C° 0 mm 5 mps 753 mmHg 78%
    03:00 0°C° 0 mm 5 mps 753 mmHg 78%
    04:00 +1°C° 0 mm 5 mps 752 mmHg 77%
    05:00 +1°C° 0 mm 5 mps 752 mmHg 76%
    06:00 +1°C° 0 mm 6 mps 751 mmHg 75%
    07:00 +2°C° 0 mm 7 mps 751 mmHg 70%
    08:00 +2°C° 0 mm 8 mps 750 mmHg 65%
    09:00 +5°C° 0 mm 10 mps 750 mmHg 61%
    10:00 +5°C° 0.2 mm 9 mps 750 mmHg 62%
    11:00 +5°C° 0.2 mm 9 mps 750 mmHg 62%
    12:00 +6°C° 0.2 mm 9 mps 749 mmHg 63%
    13:00 +6°C° 0.1 mm 9 mps 750 mmHg 62%
    14:00 +6°C° 0.1 mm 9 mps 750 mmHg 61%
    15:00 +6°C° 0.1 mm 10 mps 750 mmHg 60%
    16:00 +5°C° 0 mm 9 mps 750 mmHg 64%
    17:00 +5°C° 0 mm 8 mps 750 mmHg 68%
    18:00 +5°C° 0 mm 8 mps 750 mmHg 71%
    19:00 +4°C° 0.1 mm 8 mps 751 mmHg 73%
    20:00 +4°C° 0.1 mm 8 mps 751 mmHg 74%
    21:00 +4°C° 0.1 mm 8 mps 752 mmHg 75%
    22:00 +2°C° 0 mm 8 mps 752 mmHg 75%
    23:00 +2°C° 0 mm 8 mps 752 mmHg 74%

    25 March, Monday

    Time Temperature Precipitation Wind Pressure Humidity
    00:00 +1°C° 0 mm 8 mps 753 mmHg 74%
    01:00 +1°C° 0 mm 8 mps 753 mmHg 73%
    02:00 +1°C° 0 mm 8 mps 754 mmHg 72%
    03:00 0°C° 0 mm 8 mps 754 mmHg 70%
    04:00 0°C° 0 mm 7 mps 755 mmHg 72%
    05:00 +1°C° 0 mm 6 mps 755 mmHg 73%
    06:00 0°C° 0 mm 5 mps 755 mmHg 74%
    07:00 +1°C° 0 mm 5 mps 756 mmHg 71%
    08:00 +2°C° 0 mm 5 mps 757 mmHg 68%
    09:00 +3°C° 0 mm 5 mps 757 mmHg 65%
    10:00 +3°C° 0 mm 5 mps 757 mmHg 64%
    11:00 +5°C° 0 mm 5 mps 758 mmHg 63%
    12:00 +5°C° 0 mm 4 mps 758 mmHg 62%
    13:00 +6°C° 0 mm 4 mps 758 mmHg 63%
    14:00 +6°C° 0 mm 4 mps 758 mmHg 64%
    15:00 +7°C° 0 mm 4 mps 758 mmHg 66%
    16:00 +7°C° 0 mm 3 mps 758 mmHg 70%
    17:00 +7°C° 0 mm 2 mps 758 mmHg 74%
    18:00 +7°C° 0 mm 2 mps 758 mmHg 78%
    19:00 +6°C° 0 mm 2 mps 758 mmHg 82%
    20:00 +4°C° 0 mm 3 mps 759 mmHg 86%
    21:00 +3°C° 0 mm 3 mps 759 mmHg 91%
    22:00 +3°C° 0 mm 3 mps 759 mmHg 91%
    23:00 +3°C° 0 mm 3 mps 759 mmHg 91%

    26 March, Tuesday

    Time Temperature Precipitation Wind Pressure Humidity
    00:00 +2°C° 0 mm 3 mps 759 mmHg 92%
    01:00 +2°C° 0 mm 3 mps 759 mmHg 91%
    02:00 +2°C° 0 mm 3 mps 758 mmHg 91%
    03:00 +2°C° 0 mm 3 mps 758 mmHg 91%
    04:00 +2°C° 0 mm 3 mps 758 mmHg 91%
    05:00 +2°C° 0 mm 3 mps 758 mmHg 91%
    06:00 +2°C° 0 mm 3 mps 758 mmHg 92%
    07:00 +3°C° 0 mm 4 mps 758 mmHg 85%
    08:00 +5°C° 0 mm 4 mps 758 mmHg 78%
    09:00 +6°C° 0 mm 4 mps 758 mmHg 71%
    10:00 +7°C° 0 mm 5 mps 758 mmHg 68%
    11:00 +8°C° 0 mm 5 mps 758 mmHg 64%
    12:00 +9°C° 0 mm 5 mps 758 mmHg 60%
    13:00 +9°C° 0 mm 5 mps 758 mmHg 60%
    14:00 +9°C° 0 mm 5 mps 757 mmHg 61%
    15:00 +9°C° 0 mm 6 mps 757 mmHg 62%
    16:00 +8°C° 0 mm 5 mps 757 mmHg 65%
    17:00 +7°C° 0 mm 5 mps 757 mmHg 69%
    18:00 +7°C° 0 mm 5 mps 756 mmHg 72%
    19:00 +6°C° 0 mm 5 mps 756 mmHg 74%
    20:00 +6°C° 0 mm 5 mps 756 mmHg 76%
    21:00 +6°C° 0 mm 5 mps 756 mmHg 77%
    22:00 +5°C° 0 mm 6 mps 756 mmHg 78%
    23:00 +5°C° 0 mm 6 mps 756 mmHg 78%
    Show more